TimeEDT,TemperatureF,Dew PointF,Humidity,Sea Level PressureIn,VisibilityMPH,Wind Direction,Wind SpeedMPH,Gust SpeedMPH,PrecipitationIn,Events,Conditions,WindDirDegrees,DateUTC
12:51 AM,63.0,50.0,63,30.09,10.0,NNE,6.9,-,N/A,,Clear,20,2013-08-05 04:51:00
1:51 AM,62.1,50.0,65,30.09,10.0,NE,3.5,-,N/A,,Clear,50,2013-08-05 05:51:00
2:51 AM,55.9,51.1,84,30.10,10.0,South,4.6,-,N/A,,Clear,190,2013-08-05 06:51:00
3:51 AM,55.0,50.0,83,30.12,10.0,South,3.5,-,N/A,,Clear,190,2013-08-05 07:51:00
4:51 AM,53.1,48.9,86,30.12,10.0,South,4.6,-,N/A,,Clear,180,2013-08-05 08:51:00
5:51 AM,53.1,48.0,83,30.12,10.0,Calm,Calm,-,N/A,,Clear,0,2013-08-05 09:51:00
6:51 AM,53.1,48.0,83,30.13,10.0,Calm,Calm,-,N/A,,Clear,0,2013-08-05 10:51:00
7:51 AM,57.0,50.0,77,30.14,10.0,SSE,6.9,-,N/A,,Clear,160,2013-08-05 11:51:00
8:51 AM,63.0,50.0,63,30.14,10.0,South,5.8,-,N/A,,Clear,170,2013-08-05 12:51:00
9:51 AM,66.0,46.9,50,30.13,10.0,South,5.8,-,N/A,,Clear,180,2013-08-05 13:51:00
10:51 AM,68.0,46.9,47,30.13,10.0,SSW,5.8,-,N/A,,Clear,210,2013-08-05 14:51:00
11:51 AM,69.1,46.9,45,30.12,10.0,NW,5.8,-,N/A,,Partly Cloudy,310,2013-08-05 15:51:00
12:51 PM,70.0,48.9,47,30.10,10.0,NW,9.2,-,N/A,,Clear,320,2013-08-05 16:51:00
1:51 PM,70.0,48.9,47,30.09,10.0,NNW,8.1,-,N/A,,Clear,340,2013-08-05 17:51:00
2:51 PM,70.0,50.0,49,30.08,10.0,NNW,6.9,-,N/A,,Unknown,330,2013-08-05 18:51:00
3:51 PM,69.1,50.0,51,30.07,10.0,NW,5.8,-,N/A,,Scattered Clouds,320,2013-08-05 19:51:00
4:51 PM,69.1,50.0,51,30.08,10.0,NNW,3.5,-,N/A,,Clear,340,2013-08-05 20:51:00
5:51 PM,69.1,50.0,51,30.06,10.0,Calm,Calm,-,N/A,,Clear,0,2013-08-05 21:51:00
6:51 PM,68.0,52.0,56,30.05,10.0,Calm,Calm,-,N/A,,Clear,0,2013-08-05 22:51:00
7:51 PM,66.9,53.1,61,30.05,10.0,Calm,Calm,-,N/A,,Clear,0,2013-08-05 23:51:00
8:51 PM,66.0,55.9,70,30.04,10.0,Calm,Calm,-,N/A,,Mostly Cloudy,0,2013-08-06 00:51:00
9:51 PM,63.0,55.9,78,30.04,10.0,Calm,Calm,-,N/A,,Clear,0,2013-08-06 01:51:00
10:51 PM,62.1,55.0,78,30.03,10.0,SSE,3.5,-,N/A,,Overcast,160,2013-08-06 02:51:00
11:51 PM,61.0,54.0,78,30.02,10.0,South,5.8,-,N/A,,Clear,170,2013-08-06 03:51:00